• In Latvia
  • List of Countries
  • For 7 days
  • Water Temperature
  • Satellite Maps
  • Weather Map
  • Weather Widgets
  • user-avatar
    Login

    Hourly Weather Biskira

    Today, 24 March, Friday

    Time Temperature Precipitation Wind Pressure Humidity
    00:00 +21°C° 0 mm 7 mps 750 mmHg 35%
    01:00 +20°C° 0 mm 8 mps 749 mmHg 38%
    02:00 +18°C° 0 mm 8 mps 749 mmHg 42%
    03:00 +18°C° 0 mm 8 mps 749 mmHg 45%
    04:00 +17°C° 0 mm 8 mps 749 mmHg 48%
    05:00 +17°C° 0 mm 8 mps 749 mmHg 50%
    06:00 +17°C° 0 mm 9 mps 749 mmHg 52%
    07:00 +18°C° 0 mm 10 mps 749 mmHg 47%
    08:00 +19°C° 0 mm 10 mps 748 mmHg 42%
    09:00 +22°C° 0 mm 11 mps 748 mmHg 37%
    10:00 +23°C° 0 mm 11 mps 748 mmHg 33%
    11:00 +24°C° 0 mm 12 mps 747 mmHg 29%
    12:00 +27°C° 0 mm 12 mps 747 mmHg 25%
    13:00 +27°C° 0 mm 13 mps 746 mmHg 24%
    14:00 +28°C° 0 mm 13 mps 746 mmHg 22%
    15:00 +28°C° 0 mm 13 mps 745 mmHg 21%
    16:00 +28°C° 0 mm 12 mps 745 mmHg 21%
    17:00 +27°C° 0 mm 11 mps 746 mmHg 22%
    18:00 +27°C° 0 mm 11 mps 746 mmHg 22%
    19:00 +23°C° 0 mm 10 mps 747 mmHg 29%
    20:00 +21°C° 0 mm 9 mps 748 mmHg 36%
    21:00 +18°C° 0 mm 8 mps 749 mmHg 42%
    22:00 +17°C° 0 mm 7 mps 750 mmHg 46%
    23:00 +16°C° 0 mm 7 mps 751 mmHg 49%

    Tomorrow, 25 March, Saturday

    Time Temperature Precipitation Wind Pressure Humidity
    00:00 +15°C° 0 mm 6 mps 751 mmHg 53%
    01:00 +14°C° 0 mm 6 mps 752 mmHg 55%
    02:00 +14°C° 0 mm 6 mps 752 mmHg 57%
    03:00 +13°C° 0 mm 6 mps 752 mmHg 59%
    04:00 +13°C° 0 mm 6 mps 753 mmHg 59%
    05:00 +13°C° 0 mm 6 mps 753 mmHg 60%
    06:00 +13°C° 0 mm 6 mps 753 mmHg 61%
    07:00 +14°C° 0 mm 5 mps 754 mmHg 54%
    08:00 +16°C° 0 mm 5 mps 754 mmHg 47%
    09:00 +19°C° 0 mm 5 mps 755 mmHg 41%
    10:00 +20°C° 0 mm 5 mps 755 mmHg 33%
    11:00 +22°C° 0 mm 5 mps 755 mmHg 26%
    12:00 +23°C° 0 mm 5 mps 754 mmHg 18%
    13:00 +25°C° 0 mm 4 mps 754 mmHg 16%
    14:00 +25°C° 0 mm 4 mps 753 mmHg 15%
    15:00 +25°C° 0 mm 4 mps 753 mmHg 13%
    16:00 +23°C° 0 mm 4 mps 753 mmHg 15%
    17:00 +22°C° 0 mm 3 mps 753 mmHg 16%
    18:00 +21°C° 0 mm 3 mps 753 mmHg 18%
    19:00 +20°C° 0 mm 3 mps 754 mmHg 19%
    20:00 +20°C° 0 mm 2 mps 754 mmHg 21%
    21:00 +20°C° 0 mm 2 mps 755 mmHg 22%
    22:00 +19°C° 0 mm 2 mps 755 mmHg 25%
    23:00 +19°C° 0 mm 2 mps 755 mmHg 28%

    Day after tomorrow, 26 March, Sunday

    Time Temperature Precipitation Wind Pressure Humidity
    00:00 +19°C° 0 mm 2 mps 755 mmHg 31%
    01:00 +18°C° 0 mm 2 mps 755 mmHg 31%
    02:00 +18°C° 0 mm 2 mps 754 mmHg 31%
    03:00 +18°C° 0 mm 2 mps 754 mmHg 31%
    04:00 +17°C° 0 mm 2 mps 754 mmHg 32%
    05:00 +17°C° 0 mm 2 mps 754 mmHg 32%
    06:00 +16°C° 0 mm 1 mps 754 mmHg 32%
    07:00 +18°C° 0 mm 2 mps 754 mmHg 31%
    08:00 +20°C° 0 mm 3 mps 754 mmHg 30%
    09:00 +22°C° 0 mm 4 mps 755 mmHg 29%
    10:00 +23°C° 0 mm 4 mps 754 mmHg 28%
    11:00 +25°C° 0 mm 4 mps 754 mmHg 28%
    12:00 +26°C° 0 mm 4 mps 753 mmHg 27%
    13:00 +26°C° 0 mm 4 mps 753 mmHg 26%
    14:00 +26°C° 0 mm 4 mps 752 mmHg 25%
    15:00 +27°C° 0 mm 4 mps 751 mmHg 24%
    16:00 +26°C° 0 mm 3 mps 751 mmHg 27%
    17:00 +25°C° 0 mm 3 mps 752 mmHg 29%
    18:00 +24°C° 0 mm 2 mps 752 mmHg 31%
    19:00 +23°C° 0 mm 2 mps 752 mmHg 34%
    20:00 +22°C° 0 mm 1 mps 753 mmHg 37%
    21:00 +21°C° 0 mm 1 mps 753 mmHg 40%
    22:00 +21°C° 0 mm 1 mps 753 mmHg 41%
    23:00 +20°C° 0 mm 1 mps 753 mmHg 42%

    27 March, Monday

    Time Temperature Precipitation Wind Pressure Humidity
    00:00 +20°C° 0 mm 1 mps 753 mmHg 42%
    01:00 +19°C° 0 mm 1 mps 753 mmHg 43%
    02:00 +19°C° 0 mm 1 mps 752 mmHg 45%
    03:00 +18°C° 0 mm 1 mps 752 mmHg 46%
    04:00 +18°C° 0 mm 1 mps 752 mmHg 48%
    05:00 +18°C° 0 mm 1 mps 752 mmHg 50%
    06:00 +18°C° 0 mm 1 mps 753 mmHg 52%
    07:00 +19°C° 0 mm 2 mps 753 mmHg 49%
    08:00 +20°C° 0 mm 2 mps 754 mmHg 45%
    09:00 +23°C° 0 mm 2 mps 754 mmHg 42%
    10:00 +24°C° 0 mm 2 mps 754 mmHg 39%
    11:00 +25°C° 0 mm 2 mps 754 mmHg 36%
    12:00 +27°C° 0 mm 2 mps 754 mmHg 32%
    13:00 +27°C° 0 mm 2 mps 753 mmHg 30%
    14:00 +28°C° 0 mm 2 mps 753 mmHg 28%
    15:00 +28°C° 0 mm 2 mps 753 mmHg 25%
    16:00 +27°C° 0 mm 2 mps 753 mmHg 27%
    17:00 +26°C° 0 mm 1 mps 753 mmHg 28%
    18:00 +25°C° 0 mm 1 mps 753 mmHg 30%
    19:00 +25°C° 0 mm 1 mps 754 mmHg 32%
    20:00 +24°C° 0 mm 2 mps 755 mmHg 34%
    21:00 +23°C° 0 mm 2 mps 755 mmHg 36%
    22:00 +22°C° 0 mm 3 mps 756 mmHg 41%
    23:00 +21°C° 0 mm 3 mps 756 mmHg 45%

    28 March, Tuesday

    Time Temperature Precipitation Wind Pressure Humidity
    00:00 +20°C° 0 mm 4 mps 756 mmHg 49%
    01:00 +20°C° 0 mm 4 mps 756 mmHg 51%
    02:00 +19°C° 0 mm 3 mps 756 mmHg 54%
    03:00 +18°C° 0 mm 3 mps 756 mmHg 57%
    04:00 +18°C° 0 mm 3 mps 756 mmHg 57%
    05:00 +18°C° 0 mm 2 mps 756 mmHg 58%
    06:00 +18°C° 0 mm 2 mps 756 mmHg 59%
    07:00 +19°C° 0 mm 2 mps 757 mmHg 53%
    08:00 +20°C° 0 mm 2 mps 757 mmHg 47%
    09:00 +22°C° 0 mm 3 mps 757 mmHg 42%
    10:00 +24°C° 0 mm 3 mps 757 mmHg 39%
    11:00 +25°C° 0 mm 3 mps 757 mmHg 36%
    12:00 +26°C° 0 mm 3 mps 756 mmHg 33%
    13:00 +26°C° 0 mm 2 mps 756 mmHg 31%
    14:00 +27°C° 0 mm 2 mps 756 mmHg 29%
    15:00 +27°C° 0 mm 2 mps 755 mmHg 27%
    16:00 +26°C° 0 mm 2 mps 756 mmHg 27%
    17:00 +26°C° 0 mm 2 mps 756 mmHg 28%
    18:00 +25°C° 0 mm 1 mps 757 mmHg 28%
    19:00 +24°C° 0 mm 2 mps 757 mmHg 31%
    20:00 +22°C° 0 mm 3 mps 758 mmHg 34%
    21:00 +21°C° 0 mm 3 mps 758 mmHg 36%
    22:00 +21°C° 0 mm 3 mps 758 mmHg 40%
    23:00 +20°C° 0 mm 3 mps 758 mmHg 43%

    29 March, Wednesday

    Time Temperature Precipitation Wind Pressure Humidity
    00:00 +19°C° 0 mm 3 mps 758 mmHg 47%
    01:00 +18°C° 0.1 mm 3 mps 759 mmHg 51%
    02:00 +18°C° 0.1 mm 3 mps 759 mmHg 55%
    03:00 +17°C° 0.1 mm 3 mps 759 mmHg 59%
    04:00 +17°C° 0 mm 3 mps 759 mmHg 60%
    05:00 +17°C° 0 mm 2 mps 759 mmHg 61%
    06:00 +16°C° 0 mm 2 mps 760 mmHg 63%
    07:00 +17°C° 0 mm 2 mps 760 mmHg 60%
    08:00 +18°C° 0 mm 2 mps 760 mmHg 57%
    09:00 +19°C° 0 mm 2 mps 760 mmHg 54%
    10:00 +20°C° 0 mm 2 mps 760 mmHg 51%
    11:00 +21°C° 0 mm 2 mps 760 mmHg 47%
    12:00 +23°C° 0 mm 2 mps 759 mmHg 43%
    13:00 +23°C° 0.1 mm 2 mps 759 mmHg 41%
    14:00 +24°C° 0.1 mm 2 mps 758 mmHg 38%
    15:00 +24°C° 0.1 mm 2 mps 758 mmHg 35%
    16:00 +24°C° 0 mm 2 mps 758 mmHg 36%
    17:00 +23°C° 0 mm 2 mps 758 mmHg 37%
    18:00 +23°C° 0 mm 2 mps 758 mmHg 37%
    19:00 +21°C° 0 mm 2 mps 759 mmHg 40%
    20:00 +20°C° 0 mm 2 mps 759 mmHg 43%
    21:00 +20°C° 0 mm 1 mps 760 mmHg 45%
    22:00 +20°C° 0 mm 1 mps 760 mmHg 47%
    23:00 +18°C° 0 mm 2 mps 760 mmHg 49%
    Show more